TimeEST,TemperatureF,Dew PointF,Humidity,Sea Level PressureIn,VisibilityMPH,Wind Direction,Wind SpeedMPH,Gust SpeedMPH,PrecipitationIn,Events,Conditions,WindDirDegrees,DateUTC
12:53 AM,42.1,15.1,34,30.23,10.0,SSW,3.5,-,N/A,,Clear,200,2013-11-15 05:53:00
1:53 AM,41.0,15.1,35,30.21,10.0,South,4.6,-,N/A,,Clear,170,2013-11-15 06:53:00
2:53 AM,41.0,16.0,36,30.21,10.0,South,4.6,-,N/A,,Clear,190,2013-11-15 07:53:00
3:53 AM,41.0,16.0,36,30.21,10.0,SSW,3.5,-,N/A,,Clear,200,2013-11-15 08:53:00
4:53 AM,41.0,16.0,36,30.21,10.0,South,3.5,-,N/A,,Clear,180,2013-11-15 09:53:00
5:53 AM,39.9,17.1,40,30.23,10.0,SSW,4.6,-,N/A,,Clear,200,2013-11-15 10:53:00
6:53 AM,39.0,16.0,39,30.23,10.0,South,4.6,-,N/A,,Clear,190,2013-11-15 11:53:00
7:53 AM,39.9,17.1,40,30.25,10.0,SSW,3.5,-,N/A,,Clear,210,2013-11-15 12:53:00
8:53 AM,43.0,19.0,38,30.25,10.0,South,3.5,-,N/A,,Clear,190,2013-11-15 13:53:00
9:53 AM,50.0,23.0,35,30.25,10.0,Variable,4.6,-,N/A,,Clear,0,2013-11-15 14:53:00
10:53 AM,51.1,27.0,39,30.24,10.0,Variable,3.5,-,N/A,,Mostly Cloudy,0,2013-11-15 15:53:00
11:53 AM,53.1,28.9,40,30.22,10.0,Calm,Calm,-,N/A,,Overcast,0,2013-11-15 16:53:00
12:53 PM,54.0,35.1,49,30.19,10.0,Variable,4.6,-,0.00,,Scattered Clouds,0,2013-11-15 17:53:00
1:53 PM,54.0,36.0,51,30.19,10.0,Variable,4.6,-,N/A,,Overcast,0,2013-11-15 18:53:00
2:53 PM,55.0,37.0,51,30.17,10.0,Calm,Calm,-,N/A,,Mostly Cloudy,0,2013-11-15 19:53:00
3:53 PM,54.0,37.0,53,30.14,10.0,SSE,3.5,-,N/A,,Overcast,160,2013-11-15 20:53:00
4:53 PM,53.1,37.0,55,30.15,10.0,Calm,Calm,-,N/A,,Overcast,0,2013-11-15 21:53:00
5:53 PM,52.0,39.0,61,30.15,10.0,SSE,3.5,-,0.01,Rain,Light Rain,150,2013-11-15 22:53:00
6:53 PM,50.0,41.0,71,30.16,10.0,Calm,Calm,-,0.01,Rain,Light Rain,0,2013-11-15 23:53:00
7:53 PM,48.0,43.0,83,30.18,10.0,South,3.5,-,0.04,Rain,Light Rain,180,2013-11-16 00:53:00
8:53 PM,46.9,44.1,90,30.17,10.0,SSE,4.6,-,0.01,Rain,Light Rain,150,2013-11-16 01:53:00
9:53 PM,46.9,44.1,90,30.17,10.0,SSE,3.5,-,0.00,Rain,Light Rain,160,2013-11-16 02:53:00
10:53 PM,46.9,45.0,93,30.18,10.0,SSE,3.5,-,0.00,,Overcast,150,2013-11-16 03:53:00
11:53 PM,46.9,45.0,93,30.17,10.0,South,3.5,-,0.00,,Overcast,190,2013-11-16 04:53:00